| time (UTC) | temp C | wind direction | speed KPH | gust KPH | rain 1hr cm | rain 24hr cm | rain mn cm | humidity % | barometer mb |
| 20260505125004 | -1 | 81 | 6.4 | 9.7 | 0.00 | 1.09 | 0.15 | 95 | 1005.0 |
| 20260505124504 | -1 | 69 | 4.8 | 9.7 | 0.00 | 1.09 | 0.15 | 95 | 1005.0 |
| 20260505124004 | -1 | 59 | 3.2 | 9.7 | 0.00 | 1.09 | 0.15 | 94 | 1005.0 |
| 20260505123504 | -1 | 82 | 4.8 | 11.3 | 0.00 | 1.09 | 0.15 | 95 | 1004.9 |
| 20260505123004 | -1 | 72 | 3.2 | 9.7 | 0.00 | 1.09 | 0.15 | 95 | 1005.0 |
| 20260505122503 | -1 | 77 | 6.4 | 8.0 | 0.00 | 1.09 | 0.15 | 94 | 1005.0 |
| 20260505122004 | -1 | 80 | 6.4 | 12.9 | 0.00 | 1.09 | 0.15 | 94 | 1004.9 |
| 20260505121503 | -1 | 81 | 6.4 | 11.3 | 0.00 | 1.09 | 0.15 | 94 | 1004.7 |
| 20260505121004 | -1 | 74 | 4.8 | 16.1 | 0.00 | 1.09 | 0.15 | 94 | 1004.6 |
| 20260505120504 | -1 | 61 | 8.0 | 9.7 | 0.00 | 1.09 | 0.15 | 94 | 1004.7 |
| 20260505120004 | -1 | 52 | 8.0 | 16.1 | 0.00 | 1.09 | 0.15 | 94 | 1004.6 |
| 20260505115504 | -1 | 50 | 8.0 | 14.5 | 0.00 | 1.09 | 0.15 | 94 | 1004.5 |
| 20260505115004 | -1 | 63 | 9.7 | 16.1 | 0.00 | 1.09 | 0.15 | 94 | 1004.8 |
| 20260505114504 | -1 | 54 | 8.0 | 19.3 | 0.00 | 1.09 | 0.15 | 94 | 1004.7 |
| 20260505113504 | -1 | 48 | 8.0 | 14.5 | 0.00 | 1.09 | 0.15 | 94 | 1004.5 |
| 20260505113004 | 0 | 68 | 9.7 | 19.3 | 0.00 | 1.09 | 0.15 | 94 | 1004.2 |
| 20260505112503 | 0 | 65 | 8.0 | 19.3 | 0.00 | 1.09 | 0.15 | 94 | 1004.2 |
| 20260505112004 | 0 | 64 | 9.7 | 14.5 | 0.00 | 1.09 | 0.15 | 94 | 1004.2 |
| 20260505111503 | 0 | 81 | 8.0 | 16.1 | 0.00 | 1.09 | 0.15 | 95 | 1004.2 |
| 20260505111004 | 0 | 81 | 4.8 | 11.3 | 0.00 | 1.09 | 0.15 | 95 | 1004.2 |
| 20260505110504 | 0 | 71 | 8.0 | 9.7 | 0.00 | 1.09 | 0.15 | 95 | 1004.1 |
| 20260505101503 | 0 | 64 | 4.8 | 11.3 | 0.00 | 1.09 | 0.15 | 95 | 1004.3 |
| 20260505100503 | 0 | 84 | 9.7 | 19.3 | 0.03 | 1.09 | 0.15 | 94 | 1004.3 |
| 20260505100003 | 0 | 47 | 6.4 | 12.9 | 0.03 | 1.09 | 0.15 | 94 | 1004.3 |
| 20260505095504 | 0 | 45 | 6.4 | 11.3 | 0.03 | 1.09 | 0.15 | 94 | 1004.2 |
| 20260505095004 | 0 | 40 | 9.7 | 16.1 | 0.03 | 1.09 | 0.15 | 94 | 1004.2 |
| 20260505094504 | 0 | 43 | 11.3 | 16.1 | 0.03 | 1.09 | 0.15 | 94 | 1004.2 |
| 20260505094004 | 0 | 59 | 8.0 | 14.5 | 0.03 | 1.09 | 0.15 | 94 | 1004.2 |
| 20260505093004 | 0 | 62 | 11.3 | 19.3 | 0.03 | 1.09 | 0.15 | 94 | 1004.0 |
| 20260505092503 | 0 | 52 | 8.0 | 19.3 | 0.03 | 1.09 | 0.15 | 94 | 1004.0 |
| 20260505091503 | 1 | 63 | 9.7 | 19.3 | 0.03 | 1.09 | 0.15 | 94 | 1004.0 |
| 20260505091004 | 1 | 57 | 9.7 | 19.3 | 0.05 | 1.09 | 0.15 | 94 | 1003.9 |
| 20260505085504 | 1 | 50 | 9.7 | 16.1 | 0.03 | 1.07 | 0.13 | 95 | 1003.9 |
| 20260505085004 | 1 | 49 | 11.3 | 14.5 | 0.03 | 1.07 | 0.13 | 94 | 1003.9 |
| 20260505084504 | 1 | 54 | 8.0 | 16.1 | 0.03 | 1.07 | 0.13 | 94 | 1003.9 |
| 20260505084004 | 1 | 38 | 8.0 | 14.5 | 0.03 | 1.07 | 0.13 | 94 | 1003.9 |
| 20260505083504 | 1 | 58 | 8.0 | 11.3 | 0.03 | 1.07 | 0.13 | 94 | 1003.9 |
| 20260505083004 | 1 | 51 | 8.0 | 14.5 | 0.05 | 1.07 | 0.13 | 94 | 1004.0 |
| 20260505082004 | 1 | 47 | 9.7 | 16.1 | 0.10 | 1.07 | 0.13 | 94 | 1004.1 |
| 20260505081504 | 2 | 59 | 9.7 | 14.5 | 0.13 | 1.07 | 0.13 | 94 | 1004.1 |
| 20260505081004 | 2 | 54 | 4.8 | 11.3 | 0.10 | 1.04 | 0.10 | 94 | 1004.0 |
| 20260505080504 | 2 | 47 | 9.7 | 19.3 | 0.10 | 1.04 | 0.10 | 94 | 1004.0 |
| 20260505075504 | 2 | 76 | 11.3 | 16.1 | 0.10 | 1.04 | 0.10 | 94 | 1004.0 |
| 20260505075005 | 2 | 77 | 11.3 | 19.3 | 0.10 | 1.04 | 0.10 | 94 | 1004.0 |
| 20260505074504 | 3 | 93 | 8.0 | 16.1 | 0.10 | 1.04 | 0.10 | 94 | 1004.1 |
| 20260505074004 | 3 | 92 | 8.0 | 16.1 | 0.10 | 1.04 | 0.10 | 95 | 1004.2 |
| 20260505073504 | 3 | 113 | 4.8 | 11.3 | 0.10 | 1.04 | 0.10 | 95 | 1004.3 |
| 20260505073003 | 3 | 46 | 1.6 | 3.2 | 0.08 | 1.02 | 0.08 | 95 | 1004.3 |
| 20260505071503 | 3 | 46 | 1.6 | 3.2 | 0.00 | 0.94 | 0.00 | 95 | 1004.3 |
| 20260505071004 | 3 | 46 | 0.0 | 0.0 | 0.00 | 0.94 | 0.00 | 95 | 1004.3 |
| 20260505070504 | 3 | 46 | 0.0 | 0.0 | 0.00 | 0.94 | 0.00 | 95 | 1004.3 |
| 20260505070003 | 3 | 46 | 0.0 | 0.0 | 0.00 | 0.94 | 0.00 | 95 | 1004.3 |
| 20260505065004 | 3 | 46 | 0.0 | 0.0 | 0.00 | 0.94 | 0.00 | 95 | 1004.3 |
| 20260505064503 | 3 | 46 | 0.0 | 0.0 | 0.00 | 0.94 | 0.00 | 95 | 1004.4 |
| 20260505064003 | 3 | 46 | 0.0 | 0.0 | 0.00 | 0.94 | 0.00 | 95 | 1004.5 |
| 20260505063504 | 3 | 46 | 0.0 | 0.0 | 0.00 | 0.94 | 0.00 | 95 | 1004.5 |
| 20260505063003 | 2 | 46 | 0.0 | 0.0 | 0.00 | 0.94 | 0.00 | 95 | 1004.5 |
| 20260505062503 | 2 | 46 | 0.0 | 0.0 | 0.00 | 0.94 | 0.00 | 95 | 1004.6 |
| 20260505062004 | 2 | 46 | 0.0 | 0.0 | 0.00 | 0.94 | 0.00 | 95 | 1004.6 |
| 20260505061003 | 2 | 46 | 0.0 | 0.0 | 0.00 | 0.94 | 0.00 | 94 | 1004.6 |
| 20260505060504 | 2 | 46 | 0.0 | 0.0 | 0.00 | 0.94 | 0.00 | 94 | 1004.6 |
| 20260505060003 | 2 | 46 | 0.0 | 0.0 | 0.00 | 0.94 | 0.00 | 94 | 1004.6 |
| 20260505055503 | 2 | 46 | 0.0 | 0.0 | 0.00 | 0.94 | 0.94 | 94 | 1004.7 |
| 20260505054503 | 2 | 46 | 0.0 | 0.0 | 0.00 | 0.94 | 0.94 | 94 | 1004.7 |
| 20260505054004 | 2 | 46 | 0.0 | 0.0 | 0.00 | 0.94 | 0.94 | 94 | 1004.6 |
| 20260505053004 | 2 | 46 | 0.0 | 0.0 | 0.00 | 0.94 | 0.94 | 94 | 1004.6 |
| 20260505052504 | 2 | 46 | 0.0 | 0.0 | 0.00 | 0.94 | 0.94 | 94 | 1004.7 |
| 20260505052004 | 2 | 46 | 0.0 | 0.0 | 0.00 | 0.94 | 0.94 | 94 | 1004.6 |
| 20260505051504 | 2 | 46 | 0.0 | 0.0 | 0.00 | 0.94 | 0.94 | 94 | 1004.6 |
| 20260505051004 | 2 | 46 | 0.0 | 0.0 | 0.00 | 0.94 | 0.94 | 93 | 1004.6 |
| 20260505041504 | 3 | 46 | 0.0 | 0.0 | 0.00 | 0.94 | 0.94 | 93 | 1004.6 |
| 20260505041004 | 3 | 46 | 0.0 | 3.2 | 0.00 | 0.94 | 0.94 | 93 | 1004.5 |
| 20260505040504 | 3 | 46 | 1.6 | 4.8 | 0.00 | 0.94 | 0.94 | 93 | 1004.5 |
| 20260505040004 | 3 | 61 | 0.0 | 0.0 | 0.00 | 0.94 | 0.94 | 93 | 1004.5 |
| 20260505035504 | 3 | 61 | 0.0 | 0.0 | 0.00 | 0.94 | 0.94 | 93 | 1004.5 |
| 20260505035004 | 3 | 61 | 1.6 | 4.8 | 0.00 | 0.94 | 0.94 | 93 | 1004.4 |
| 20260505034504 | 3 | 61 | 3.2 | 4.8 | 0.00 | 0.94 | 0.94 | 93 | 1004.4 |
| 20260505034004 | 3 | 61 | 3.2 | 4.8 | 0.00 | 0.94 | 0.94 | 93 | 1004.5 |
| 20260505033004 | 3 | 46 | 1.6 | 4.8 | 0.00 | 0.94 | 0.94 | 92 | 1004.8 |
| 20260505032504 | 3 | 46 | 3.2 | 4.8 | 0.00 | 0.94 | 0.94 | 92 | 1004.6 |
| 20260505032004 | 3 | 46 | 4.8 | 8.0 | 0.00 | 0.94 | 0.94 | 92 | 1004.6 |
| 20260505031004 | 3 | 232 | 0.0 | 0.0 | 0.00 | 0.94 | 0.94 | 92 | 1004.5 |
| 20260505030504 | 3 | 232 | 0.0 | 0.0 | 0.00 | 0.94 | 0.94 | 92 | 1004.4 |
| 20260505030004 | 3 | 232 | 0.0 | 0.0 | 0.00 | 0.94 | 0.94 | 92 | 1004.3 |
| 20260505025503 | 3 | 232 | 0.0 | 0.0 | 0.00 | 0.94 | 0.94 | 92 | 1004.3 |
| 20260505024503 | 3 | 232 | 0.0 | 4.8 | 0.03 | 0.94 | 0.94 | 92 | 1003.9 |
| 20260505023504 | 3 | 281 | 1.6 | 4.8 | 0.08 | 0.94 | 0.94 | 92 | 1003.9 |
| 20260505022504 | 3 | 281 | 3.2 | 4.8 | 0.08 | 0.94 | 0.94 | 92 | 1003.8 |
| 20260505021504 | 3 | 280 | 1.6 | 4.8 | 0.10 | 0.94 | 0.94 | 92 | 1003.8 |
| 20260505021004 | 3 | 280 | 1.6 | 4.8 | 0.10 | 0.94 | 0.94 | 93 | 1003.8 |
| 20260505020504 | 3 | 280 | 3.2 | 4.8 | 0.10 | 0.94 | 0.94 | 92 | 1003.9 |
| 20260505015504 | 3 | 209 | 12.9 | 19.3 | 0.15 | 0.94 | 0.94 | 92 | 1003.5 |
| 20260505015004 | 3 | 172 | 9.7 | 14.5 | 0.15 | 0.91 | 0.91 | 92 | 1003.1 |
| 20260505014004 | 3 | 97 | 3.2 | 4.8 | 0.20 | 0.89 | 0.89 | 92 | 1003.8 |
| 20260505013504 | 3 | 97 | 1.6 | 3.2 | 0.20 | 0.86 | 0.86 | 92 | 1003.9 |
| 20260505013003 | 3 | 97 | 0.0 | 0.0 | 0.23 | 0.86 | 0.86 | 92 | 1003.9 |
| 20260505012504 | 3 | 97 | 0.0 | 0.0 | 0.28 | 0.86 | 0.86 | 91 | 1003.9 |
| 20260505012004 | 3 | 97 | 0.0 | 0.0 | 0.30 | 0.86 | 0.86 | 91 | 1003.9 |
| 20260505011504 | 3 | 97 | 0.0 | 3.2 | 0.30 | 0.84 | 0.84 | 91 | 1004.0 |
| 20260505010504 | 3 | 97 | 1.6 | 4.8 | 0.43 | 0.84 | 0.84 | 91 | 1004.2 |
| 20260505010004 | 3 | 97 | 1.6 | 3.2 | 0.43 | 0.81 | 0.81 | 91 | 1004.4 |
| 20260505005504 | 3 | 97 | 3.2 | 4.8 | 0.41 | 0.79 | 0.79 | 90 | 1004.2 |
| 20260505005004 | 3 | 57 | 1.6 | 3.2 | 0.43 | 0.76 | 0.76 | 90 | 1004.2 |
| 20260505004504 | 3 | 57 | 1.6 | 3.2 | 0.51 | 0.74 | 0.74 | 90 | 1004.1 |
| 20260505004004 | 3 | 57 | 3.2 | 4.8 | 0.61 | 0.69 | 0.69 | 90 | 1004.2 |
| 20260505003504 | 3 | 83 | 3.2 | 4.8 | 0.64 | 0.66 | 0.66 | 89 | 1004.4 |
| 20260505001504 | 4 | 58 | 4.8 | 8.0 | 0.51 | 0.53 | 0.53 | 87 | 1003.9 |
| 20260505001004 | 5 | 57 | 4.8 | 8.0 | 0.43 | 0.46 | 0.46 | 86 | 1003.9 |
| 20260505000504 | 5 | 19 | 3.2 | 4.8 | 0.38 | 0.41 | 0.41 | 84 | 1003.6 |
| 20260505000003 | 5 | 355 | 3.2 | 4.8 | 0.36 | 0.38 | 0.38 | 83 | 1003.6 |
| 20260504235504 | 5 | 28 | 6.4 | 9.7 | 0.36 | 0.38 | 0.38 | 81 | 1003.4 |
| 20260504235004 | 6 | 39 | 6.4 | 8.0 | 0.30 | 0.33 | 0.33 | 77 | 1003.5 |
| 20260504234504 | 6 | 271 | 4.8 | 22.5 | 0.20 | 0.23 | 0.23 | 74 | 1003.4 |
| 20260504234004 | 7 | 354 | 14.5 | 24.1 | 0.05 | 0.08 | 0.08 | 72 | 1003.3 |
| 20260504233003 | 8 | 24 | 20.9 | 27.4 | 0.00 | 0.03 | 0.03 | 63 | 1002.9 |
| 20260504232504 | 8 | 74 | 9.7 | 24.1 | 0.00 | 0.03 | 0.03 | 61 | 1002.7 |
| 20260504232004 | 8 | 88 | 11.3 | 20.9 | 0.00 | 0.03 | 0.03 | 61 | 1002.7 |
| 20260504231004 | 8 | 117 | 6.4 | 11.3 | 0.00 | 0.03 | 0.03 | 62 | 1002.4 |
| 20260504230003 | 8 | 141 | 12.9 | 19.3 | 0.00 | 0.03 | 0.03 | 63 | 1002.3 |
| 20260504225504 | 8 | 161 | 9.7 | 16.1 | 0.00 | 0.03 | 0.03 | 62 | 1002.3 |
| 20260504225004 | 8 | 144 | 9.7 | 19.3 | 0.00 | 0.03 | 0.03 | 60 | 1001.8 |
| 20260504224503 | 9 | 132 | 14.5 | 24.1 | 0.00 | 0.03 | 0.03 | 58 | 1001.6 |
| 20260504224004 | 10 | 136 | 17.7 | 24.1 | 0.00 | 0.03 | 0.03 | 54 | 1001.5 |
| 20260504223504 | 10 | 112 | 8.0 | 16.1 | 0.00 | 0.03 | 0.03 | 53 | 1001.5 |
| 20260504223004 | 10 | 129 | 11.3 | 19.3 | 0.00 | 0.03 | 0.03 | 53 | 1001.4 |
| 20260504222504 | 10 | 116 | 9.7 | 19.3 | 0.00 | 0.03 | 0.03 | 53 | 1001.3 |
| 20260504222004 | 10 | 103 | 9.7 | 22.5 | 0.00 | 0.03 | 0.03 | 55 | 1001.1 |
| 20260504221504 | 10 | 87 | 12.9 | 25.7 | 0.00 | 0.03 | 0.03 | 53 | 1001.0 |
| 20260504221004 | 10 | 40 | 16.1 | 27.4 | 0.00 | 0.03 | 0.03 | 53 | 1000.9 |
| 20260504220504 | 10 | 43 | 14.5 | 25.7 | 0.00 | 0.03 | 0.03 | 53 | 1000.9 |
| 20260504220004 | 11 | 44 | 16.1 | 27.4 | 0.00 | 0.03 | 0.03 | 51 | 1000.8 |
| 20260504215504 | 11 | 32 | 20.9 | 29.0 | 0.00 | 0.03 | 0.03 | 48 | 1000.9 |
| 20260504215004 | 12 | 25 | 16.1 | 33.8 | 0.03 | 0.03 | 0.03 | 47 | 1001.0 |
| 20260504214503 | 12 | 25 | 16.1 | 29.0 | 0.03 | 0.03 | 0.03 | 46 | 1001.0 |
| 20260504214004 | 12 | 0 | 19.3 | 32.2 | 0.03 | 0.03 | 0.03 | 43 | 1001.0 |
| 20260504213003 | 12 | 76 | 8.0 | 16.1 | 0.03 | 0.03 | 0.03 | 46 | 1001.1 |
| 20260504212503 | 12 | 61 | 6.4 | 19.3 | 0.03 | 0.03 | 0.03 | 48 | 1001.0 |
| 20260504212004 | 12 | 114 | 14.5 | 22.5 | 0.03 | 0.03 | 0.03 | 50 | 1000.9 |
| 20260504211504 | 12 | 89 | 8.0 | 19.3 | 0.03 | 0.03 | 0.03 | 52 | 1001.0 |
| 20260504211004 | 11 | 130 | 3.2 | 11.3 | 0.03 | 0.03 | 0.03 | 52 | 1001.4 |
| 20260504210504 | 11 | 140 | 9.7 | 16.1 | 0.03 | 0.03 | 0.03 | 55 | 1001.4 |
| 20260504210004 | 11 | 120 | 8.0 | 11.3 | 0.03 | 0.03 | 0.03 | 58 | 1001.4 |
| 20260504205004 | 10 | 175 | 1.6 | 4.8 | 0.00 | 0.00 | 0.00 | 55 | 1001.2 |
| 20260504204503 | 10 | 186 | 3.2 | 14.5 | 0.00 | 0.00 | 0.00 | 52 | 1001.5 |
| 20260504204004 | 10 | 162 | 4.8 | 8.0 | 0.00 | 0.00 | 0.00 | 56 | 1001.7 |
| 20260504203504 | 10 | 199 | 8.0 | 9.7 | 0.00 | 0.00 | 0.00 | 54 | 1001.7 |
| 20260504203003 | 10 | 186 | 0.0 | 4.8 | 0.00 | 0.00 | 0.00 | 54 | 1001.7 |
| 20260504202504 | 10 | 186 | 3.2 | 4.8 | 0.00 | 0.00 | 0.00 | 54 | 1001.7 |
| 20260504202004 | 10 | 172 | 6.4 | 8.0 | 0.00 | 0.00 | 0.00 | 54 | 1001.7 |
| 20260504201504 | 10 | 177 | 3.2 | 9.7 | 0.00 | 0.00 | 0.00 | 59 | 1001.5 |
| 20260504201004 | 10 | 211 | 11.3 | 16.1 | 0.00 | 0.00 | 0.00 | 62 | 1001.6 |
| 20260504200504 | 10 | 132 | 4.8 | 8.0 | 0.00 | 0.00 | 0.00 | 63 | 1001.7 |
| 20260504200004 | 9 | 65 | 3.2 | 8.0 | 0.00 | 0.00 | 0.00 | 60 | 1001.7 |
| 20260504195503 | 8 | 207 | 1.6 | 4.8 | 0.00 | 0.00 | 0.00 | 60 | 1001.7 |
| 20260504195003 | 8 | 205 | 8.0 | 11.3 | 0.00 | 0.00 | 0.00 | 61 | 1001.9 |
| 20260504194003 | 9 | 207 | 9.7 | 14.5 | 0.00 | 0.00 | 0.00 | 59 | 1002.2 |
| 20260504193504 | 9 | 200 | 6.4 | 14.5 | 0.00 | 0.00 | 0.00 | 61 | 1002.1 |
| 20260504193004 | 9 | 215 | 4.8 | 4.8 | 0.00 | 0.00 | 0.00 | 60 | 1002.0 |
| 20260504192504 | 9 | 121 | 3.2 | 4.8 | 0.00 | 0.00 | 0.00 | 62 | 1002.0 |
| 20260504192004 | 10 | 121 | 3.2 | 4.8 | 0.00 | 0.00 | 0.00 | 56 | 1002.2 |
| 20260504191504 | 10 | 97 | 3.2 | 4.8 | 0.00 | 0.00 | 0.00 | 52 | 1002.1 |
| 20260504191003 | 10 | 75 | 4.8 | 8.0 | 0.00 | 0.00 | 0.00 | 52 | 1002.1 |
| 20260504190504 | 10 | 58 | 3.2 | 11.3 | 0.00 | 0.00 | 0.00 | 52 | 1002.1 |
| 20260504190003 | 10 | 103 | 8.0 | 14.5 | 0.00 | 0.00 | 0.00 | 50 | 1002.0 |
| 20260504185504 | 11 | 31 | 6.4 | 9.7 | 0.00 | 0.00 | 0.00 | 49 | 1002.1 |
| 20260504185004 | 11 | 67 | 6.4 | 11.3 | 0.00 | 0.00 | 0.00 | 49 | 1001.6 |
| 20260504184504 | 11 | 40 | 8.0 | 14.5 | 0.00 | 0.00 | 0.00 | 53 | 1001.6 |
| 20260504184004 | 10 | 30 | 8.0 | 12.9 | 0.00 | 0.00 | 0.00 | 57 | 1001.7 |
| 20260504183504 | 10 | 26 | 4.8 | 8.0 | 0.00 | 0.00 | 0.00 | 54 | 1001.9 |
| 20260504183004 | 10 | 325 | 6.4 | 16.1 | 0.00 | 0.00 | 0.00 | 48 | 1002.0 |
| 20260504182504 | 10 | 0 | 11.3 | 25.7 | 0.00 | 0.00 | 0.00 | 47 | 1002.2 |
| 20260504182003 | 11 | 352 | 19.3 | 45.1 | 0.00 | 0.00 | 0.00 | 45 | 1002.2 |
| 20260504181503 | 12 | 273 | 14.5 | 40.2 | 0.00 | 0.00 | 0.00 | 42 | 1002.0 |
| 20260504181004 | 12 | 286 | 14.5 | 25.7 | 0.00 | 0.00 | 0.00 | 39 | 1002.0 |
| 20260504180003 | 13 | 321 | 4.8 | 11.3 | 0.00 | 0.00 | 0.00 | 37 | 1001.7 |
| 20260504175504 | 12 | 290 | 0.0 | 9.7 | 0.00 | 0.00 | 0.00 | 36 | 1001.7 |
| 20260504174504 | 12 | 226 | 12.9 | 19.3 | 0.00 | 0.00 | 0.00 | 38 | 1001.9 |
| 20260504174003 | 12 | 277 | 1.6 | 4.8 | 0.00 | 0.00 | 0.00 | 38 | 1001.8 |
| 20260504173504 | 12 | 277 | 4.8 | 19.3 | 0.00 | 0.00 | 0.00 | 38 | 1002.0 |
| 20260504173004 | 12 | 259 | 12.9 | 22.5 | 0.00 | 0.00 | 0.00 | 41 | 1002.1 |
| 20260504172504 | 12 | 246 | 14.5 | 22.5 | 0.00 | 0.00 | 0.00 | 39 | 1002.0 |
| 20260504172003 | 12 | 233 | 16.1 | 25.7 | 0.00 | 0.00 | 0.00 | 38 | 1002.0 |
| 20260504171504 | 12 | 237 | 17.7 | 32.2 | 0.00 | 0.00 | 0.00 | 38 | 1002.0 |
| 20260504171003 | 12 | 238 | 11.3 | 24.1 | 0.00 | 0.00 | 0.00 | 37 | 1002.0 |
| 20260504170504 | 12 | 240 | 12.9 | 22.5 | 0.00 | 0.00 | 0.00 | 38 | 1002.1 |
| 20260504150504 | 11 | 234 | 9.7 | 20.9 | 0.00 | 0.00 | 0.00 | 34 | 1002.3 |
| 20260504140504 | 4 | 256 | 3.2 | 4.8 | 0.00 | 0.00 | 0.00 | 57 | 1002.4 |
| 20260504130504 | -1 | 256 | 8.0 | 8.0 | 0.00 | 0.00 | 0.00 | 62 | 1002.6 |